This is the latest recevied weather packets stored in our database for station/object K8GLX. If no packets are shown the sender has not sent any weather packets the latest 10 day(s).
| Time | Temp. | Humidity | Pressure | Rain* | Wind** | Luminosity | Snow |
|---|---|---|---|---|---|---|---|
| 1777750140 | 6.67° C | 58% | 1017.3 hPa | 0 mm | - | 686 W/m² | - |
| 1777749861 | 6.67° C | 58% | 1017.3 hPa | 0 mm | - | 694 W/m² | - |
| 1777749429 | 6.67° C | 58% | 1017.2 hPa | 0 mm | - | 696 W/m² | - |
| 1777749134 | 6.67° C | 55% | 1017.3 hPa | 0 mm | - | 709 W/m² | - |
| 1777748829 | 6.67° C | 56% | 1017.3 hPa | 0 mm | - | 723 W/m² | - |
| 1777748663 | 6.67° C | 56% | 1017.4 hPa | 0 mm | - | 728 W/m² | - |
| 1777748229 | 6.67° C | 54% | 1017.3 hPa | 0 mm | - | 737 W/m² | - |
| 1777748063 | 6.67° C | 58% | 1017.4 hPa | 0 mm | - | 740 W/m² | - |
| 1777747629 | 6.11° C | 53% | 1017.5 hPa | 0 mm | - | 512 W/m² | - |
| 1777747335 | 6.67° C | 54% | 1017.3 hPa | 0 mm | - | 749 W/m² | - |
| 1777747029 | 6.11° C | 51% | 1017.5 hPa | 0 mm | - | 689 W/m² | - |
| 1777746735 | 6.67° C | 55% | 1017.4 hPa | 0 mm | - | 794 W/m² | - |
| 1777746429 | 6.67° C | 52% | 1017.5 hPa | 0 mm | - | 716 W/m² | - |
| 1777746135 | 7.22° C | 53% | 1017.4 hPa | 0 mm | - | 729 W/m² | - |
| 1777745829 | 6.67° C | 55% | 1017.2 hPa | 0 mm | - | 779 W/m² | - |
| 1777745535 | 6.67° C | 59% | 1017.4 hPa | 0 mm | - | 557 W/m² | - |
| 1777745229 | 6.11° C | 60% | 1017.4 hPa | 0 mm | - | 697 W/m² | - |
| 1777744940 | 5.56° C | 57% | 1017.7 hPa | 0 mm | - | 922 W/m² | - |
| 1777744629 | 6.11° C | 53% | 1017.6 hPa | 0 mm | - | 844 W/m² | - |
| 1777744334 | 6.67° C | 58% | 1017.6 hPa | 0 mm | - | 769 W/m² | - |
| 1777744029 | 6.67° C | 54% | 1017.6 hPa | 0 mm | - | 712 W/m² | - |
| 1777743734 | 6.67° C | 58% | 1017.6 hPa | 0 mm | - | 975 W/m² | - |
| 1777743517 | 6.11° C | 59% | 1017.6 hPa | 0 mm | - | 583 W/m² | - |
| 1777743237 | 6.11° C | 58% | 1017.6 hPa | 0 mm | - | 594 W/m² | - |
| 1777742942 | 6.11° C | 58% | 1017.6 hPa | 0 mm | - | 494 W/m² | - |
* Rain latest hour (hover to see other rain measurements)
** Current wind speed in m/s (hover to see current wind gust speed)